This is the latest recevied weather packets stored in our database for station/object WA2TQI. If no packets are shown the sender has not sent any weather packets the latest 10 day(s).
| Time | Temp. | Humidity | Pressure | Rain* | Wind** | Luminosity | Snow |
|---|---|---|---|---|---|---|---|
| 1777531803 | 8.89° C | 99% | 1009.3 hPa | 0 mm | - | - | - |
| 1777531197 | 8.89° C | 99% | 1009.2 hPa | 0 mm | - | - | - |
| 1777530894 | 8.89° C | 99% | 1009.5 hPa | 0 mm | - | - | - |
| 1777530591 | 8.89° C | 99% | 1009.4 hPa | 0 mm | - | - | - |
| 1777530288 | 8.89° C | 99% | 1009.2 hPa | 0 mm | - | - | - |
| 1777529984 | 8.89° C | 99% | 1009.6 hPa | 0 mm | - | - | - |
| 1777529676 | 8.89° C | 99% | 1009.4 hPa | 0 mm | - | - | - |
| 1777529373 | 8.89° C | 99% | 1009.6 hPa | 0 mm | - | - | - |
| 1777529069 | 8.89° C | 99% | 1009.8 hPa | 1.78 mm | - | - | - |
| 1777528764 | 8.89° C | 99% | 1009.9 hPa | 1.78 mm | - | - | - |
| 1777528462 | 8.89° C | 99% | 1009.6 hPa | 0 mm | - | - | - |
| 1777528161 | 8.89° C | 99% | 1009.8 hPa | 0 mm | - | - | - |
| 1777527858 | 8.89° C | 99% | 1009.9 hPa | 1.27 mm | - | - | - |
| 1777527553 | 8.89° C | 99% | 1009.9 hPa | 3.05 mm | - | - | - |
| 1777527248 | 8.89° C | 99% | 1009.7 hPa | 1.78 mm | - | - | - |
| 1777526943 | 8.89° C | 99% | 1010 hPa | 0 mm | - | - | - |
| 1777526639 | 8.89° C | 99% | 1009.8 hPa | 1.27 mm | - | - | - |
| 1777526334 | 8.89° C | 99% | 1009.9 hPa | 1.27 mm | - | - | - |
| 1777526030 | 8.89° C | 99% | 1010.5 hPa | 0 mm | - | - | - |
| 1777525727 | 8.89° C | 99% | 1010.5 hPa | 0 mm | - | - | - |
| 1777525424 | 8.89° C | 99% | 1010.3 hPa | 0 mm | - | - | - |
| 1777525120 | 8.89° C | 99% | 1010.3 hPa | 0 mm | - | - | - |
| 1777524817 | 8.89° C | 99% | 1010.3 hPa | 1.78 mm | - | - | - |
| 1777524515 | 8.89° C | 99% | 1010.4 hPa | 6.1 mm | - | - | - |
| 1777524212 | 8.89° C | 99% | 1010.3 hPa | 6.1 mm | - | - | - |
* Rain latest hour (hover to see other rain measurements)
** Current wind speed in m/s (hover to see current wind gust speed)